Regional Weather Roundup
Issued by NWS

Home | Current Version | Previous Version | Graphics & Text | Print | Product List | Glossary On
Versions: 1 2 3 4 5 6 7 8 9 10 11 12 13 14 15 16 17 18 19 20 21 22 23 24 25 26 27 28 29 30 31 32 33 34 35 36 37 38 39 40 41 42 43 44 45 46 47 48 49 50
000
ASUS45 KSLC 200210
RWRUT

UTAH REGIONAL WEATHER ROUNDUP
NATIONAL WEATHER SERVICE SALT LAKE CITY UT
700 PM MST FRI DEC 19 2014

UTZ001>011-023>025-200300-

NORTHERN UTAH

CITY           SKY/WX    TMP DP  RH WIND       PRES   REMARKS
BRIGHAM CITY   CLOUDY    40  31  69 NW5       30.13R
HILL AFB       MOCLDY    40  25  53 S8        30.11R WCI  35
LOGAN          CLOUDY    38  30  73 NE3       30.12R
OGDEN          CLOUDY    42  26  53 SE7       30.10R
PROVO AIRPORT  MOCLDY    36  28  75 S3        30.13R
SALT LAKE CITY CLOUDY    42  25  50 E5        30.10R
VERNAL         CLOUDY    29  22  75 E3        30.20F
WENDOVER       CLOUDY    36  27  69 S7        30.13R WCI  30
HEBER CITY     CLOUDY    36  23  60 CALM      30.11R
WEST JORDAN    MOCLDY    39  30  70 S10       30.10S WCI  32

$$

UTZ012>022-026-027-200300-

SOUTHERN/CENTRAL UTAH

CITY           SKY/WX    TMP DP  RH WIND       PRES   REMARKS
BLANDING       CLEAR     29  28  97 CALM      30.28R
BRYCE CANYON   PTCLDY    19  16  88 CALM      30.19R
CEDAR CITY     MOCLDY    35  28  75 S8        30.17R WCI  29
DELTA          CLOUDY    34  27  74 E6        30.12S WCI  29
MILFORD        CLOUDY    37  27  67 S16       30.13R WCI  28
MOAB/CYNLANDS  CLEAR     32  30  92 NW8       30.21R WCI  25
PRICE          CLOUDY    30  24  78 NE5       30.20R WCI  25
ST GEORGE      CLOUDY    46  34  61 W3        30.21R
KANAB          PTCLDY    32  30  93 N3        30.23S

$$

REGIONAL REPORTS     COLORADO/ARIZONA

CITY           SKY/WX    TMP DP  RH WIND       PRES   REMARKS
CRAIG, CO        N/A     17  14  88 MISG      30.18F
GRAND JUNCTION CLOUDY    31  28  89 CALM      30.21F
RIFLE          MOCLDY    29  25  85 SE6       30.22S WCI  23
MONTROSE       CLOUDY    33  24  69 CALM      30.22R
CORTEZ         CLEAR     32  28  85 NW3       30.20R
PAGE, AZ       CLEAR     38  30  73 CALM      30.20S
GRAND CANYON   CLEAR     27  24  89 E5        30.22R WCI  22
KINGMAN        MOCLDY    42  34  73 S9        30.18S
FLAGSTAFF      CLEAR     28  24  85 CALM      30.22R

$$

REGIONAL REPORTS    NEVADA/IDAHO/WYOMING

CITY           SKY/WX    TMP DP  RH WIND       PRES   REMARKS
LAS VEGAS, NV  CLOUDY    53  39  59 SW3       30.15R
ELY            CLOUDY    35  28  75 E6        30.14S WCI  30
ELKO           FLURRIES  34  32  92 CALM      30.12S
POCATELLO, ID  LGT RAIN  36  33  89 S10       30.09S WCI  28
BURLEY         LGT RAIN  37  34  89 SW6       30.08S WCI  32
EVANSTON, WY   MOCLDY    33  21  61 SW9       30.08R WCI  25
ROCK SPRINGS   CLOUDY    29  21  72 S6        30.08F WCI  23
KEMMERER       CLOUDY    32  23  69 W5        30.08S WCI  27

$$



USA.gov is the U.S. government's official web portal to all federal, state and local government web resources and services.